Piacenza Airport LIMS

Flugplatz Daten

Name: Piacenza Airport

Ident: LIMS

Lat: 44,9131012

Long: 9,723329544

Platzhöhe: 456 ft

IataCode: QPZ

City: Piacenza

Metar

2021/12/03 17:55
LIMS 031755Z 24002KT CAVOK 04/04 Q1013

Taf

2015/10/16 09:21
TAF TAF LIMS 160800Z 1609/1621 VRB05KT 9999 SCT030
BECMG 1613/1615 35007KT SCT030 BKN060
Gewünschte Webcam nicht vorhanden? Dann fügen Sie eine hinzu. Sie wird dann so schnell wie möglich freigeschaltet
Url: Title: